Date,TemperatureHighF,TemperatureAvgF,TemperatureLowF,DewpointHighF,DewpointAvgF,DewpointLowF,HumidityHigh,HumidityAvg,HumidityLow,PressureMaxIn,PressureMinIn,WindSpeedMaxMPH,WindSpeedAvgMPH,GustSpeedMaxMPH,PrecipitationSumIn
2013-2-1,28,23,18,25,21,16,91,90,87,0.00,40.00,0,-999,0,0.00
2013-2-2,32,26,21,30,23,18,90,90,89,0.00,40.00,0,-999,0,0.00
2013-2-3,26,18,12,24,16,10,92,91,91,0.00,40.00,0,-999,0,0.00
2013-2-4,15,13,12,12,11,10,91,91,91,0.00,40.00,0,-999,0,0.00
2013-2-5,39,32,24,30,26,21,90,78,67,0.00,40.00,0,-999,0,0.00
2013-2-6,28,25,22,20,20,19,90,80,71,0.00,40.00,0,-999,0,0.00
2013-2-7,29,16,8,12,0,-14,90,54,17,0.00,40.00,0,-999,0,0.00
2013-2-8,26,23,16,18,14,9,89,68,53,0.00,40.00,0,-999,0,0.00
2013-2-9,19,13,10,15,10,7,90,85,69,0.00,40.00,0,-999,0,0.00
2013-2-10,10,9,8,8,7,6,90,90,89,0.00,40.00,0,-999,0,0.00
2013-2-11,19,19,19,14,14,14,80,80,80,0.00,40.00,0,-999,0,0.00
2013-2-12,19,19,19,15,15,15,85,85,85,0.00,40.00,0,-999,0,0.00
2013-2-13,28,23,14,24,20,12,91,86,82,0.00,40.00,0,-999,0,0.00
2013-2-14,9,9,9,7,6,6,90,90,90,0.00,40.00,0,-999,0,0.00
2013-2-15,25,18,11,16,8,4,86,65,39,0.00,40.00,0,-999,0,0.00
2013-2-16,38,20,11,8,4,-3,85,57,20,0.00,40.00,0,-999,0,0.00
2013-2-17,34,27,17,9,2,-7,61,35,20,0.00,40.00,0,-999,0,0.00
2013-2-18,22,10,0,6,-5,-11,73,52,26,0.00,40.00,0,-999,0,0.00
2013-2-19,28,22,12,7,1,-20,55,40,15,0.00,40.00,0,-999,0,0.00
2013-2-20,23,18,11,17,11,1,91,74,40,0.00,40.00,0,-999,0,0.00
2013-2-21,22,16,9,19,14,7,91,89,84,0.00,40.00,0,-999,0,0.00
2013-2-22,14,12,10,9,8,6,90,85,80,0.00,40.00,0,-999,0,0.00
2013-2-23,25,21,14,21,17,12,90,86,82,0.00,40.00,0,-999,0,0.00
2013-2-24,18,13,10,10,8,7,87,82,70,0.00,40.00,0,-999,0,0.00
2013-2-25,26,18,2,19,13,-1,89,78,61,0.00,40.00,0,-999,0,0.00
2013-2-26,16,9,0,9,5,-4,88,84,74,0.00,40.00,0,-999,0,0.00
2013-2-27,19,12,2,12,6,-1,87,80,69,0.00,40.00,0,-999,0,0.00
2013-2-28,26,14,1,17,9,-2,90,82,67,0.00,40.00,0,-999,0,0.00